Flag for Germany Weather past 2 weeks in Hückelhoven, North Rhine-Westphalia, Germany

Now
84 °F

Passing clouds.


Feels Like: 88 °F
Forecast: 63 / 84 °F
Wind: 6 mph from Southeast

Location: Monchengladbach Airport

Current Time: Jul 4, 2015 at 10:10:05 AM

Latest Report: Jul 4, 2015 at 9:50 AM


Visibility: N/A

Pressure: 30.04 "Hg

Humidity: 62%

Dew point: 70 °F

Location of HückelhovenLocation

Historic Weather in Hückelhoven — Graph

°F

Hückelhoven temperature yesterday

Maximum temperature yesterday: 91 °F (at 5:50 PM)
Minimum temperature yesterday: 70 °F (at 7:50 AM)
Average temperature yesterday: 84 °F

Past Weeks' High & Low Weather Summary

 TemperatureHumidityPressure
High99 °F (Jul 2, 3:50 PM)100% (Jun 20, 7:20 AM)30.24 "Hg (Jun 20, 7:20 AM)
Low50 °F (Jun 22, 8:20 PM)29% (Jun 30, 5:50 PM)29.71 "Hg (Jun 22, 6:20 PM)
Average70 °F63%30.07 "Hg
* Reported Jun 19 8:20 AM — Jul 4 8:50 AM, Hückelhoven, Weather by CustomWeather, © 2015

Note: Actual official high and low records may vary slightly from our data, if they occured in-between our weather recording intervals... More about our weather records

Advertising

Hückelhoven weather history for previous 24 hours

 ConditionsComfort  
Time TempWeatherWind HumidityBarometerVisibility
8:50 AM
Sat, Jul 4
81 °FPassing clouds.6 mph70%30.04 "HgN/A
8:20 AM81 °FClear.5 mph70%30.04 "Hg5 mi
7:50 AM79 °FClear.5 mph74%30.04 "Hg5 mi
8:20 PM
Fri, Jul 3
88 °FPassing clouds.6 mph52%30.15 "HgN/A
7:50 PM88 °FPassing clouds.8 mph52%30.15 "HgN/A
7:20 PM90 °FClear.7 mph49%30.15 "Hg10 mi
6:50 PM91 °FClear.3 mph44%30.15 "Hg10 mi
6:20 PM91 °FClear.3 mph41%30.15 "Hg10 mi
5:50 PM91 °FClear.3 mph41%30.15 "Hg10 mi
5:20 PM90 °FPassing clouds.5 mph43%30.18 "HgN/A
4:50 PM90 °FClear.2 mph43%30.18 "Hg10 mi
4:20 PM90 °FClear.3 mph43%30.18 "Hg10 mi
3:50 PM90 °FPassing clouds.5 mph43%30.18 "HgN/A
3:20 PM88 °FClear.5 mph46%30.18 "Hg10 mi
2:50 PM88 °FPassing clouds.5 mph46%30.21 "HgN/A
2:20 PM88 °FClear.5 mph46%30.21 "Hg10 mi
1:50 PM88 °FSunny.3 mph49%30.21 "Hg10 mi
1:20 PM84 °FPassing clouds.5 mph51%30.21 "HgN/A
12:50 PM84 °FSunny.3 mph55%30.21 "Hg10 mi
12:20 PM84 °FSunny.3 mph55%30.24 "Hg10 mi
11:50 AM82 °FSunny.3 mph58%30.24 "Hg10 mi
11:20 AM81 °FPassing clouds.6 mph62%30.24 "HgN/A
10:50 AM79 °FPassing clouds.5 mph61%30.24 "HgN/A
10:20 AM77 °FPassing clouds.5 mph69%30.24 "HgN/A
Weather by CustomWeather, © 2015

See weather overviewHow to use our weather pages